EHI
0 0 0 0 0 0 0 0 0 0 0 1 2 3 4 4 3 4 7 11 15 16 20 28 34 38 39 33 29 26 21 16 15 15 13 9 5 3 2 1 1 2 2 2
0 0 0 0 0 0 0 0 0 0 0 0 2 3 3 3 4 5 9 14 17 19 25 34 43 49 49 41 34 30 24 19 16 14 12 8 5 2 1 1 1 1 2 3
0 0 0 0 0 0 0 0 0 0 0 0 1 2 1 2 4 7 12 17 22 26 32 41 52 60 59 51 43 38 33 26 20 15 12 9 7 5 4 3 2 1 2 3
0 0 0 0 0 0 0 0 0 0 0 0 1 1 1 1 4 8 15 22 27 30 35 43 54 62 62 58 53 49 42 33 26 20 15 12 11 9 7 5 3 2 2 3
0 0 0 0 0 0 0 0 0 0 0 0 0 0 1 3 5 8 16 23 27 30 35 42 51 58 60 61 60 55 48 40 31 26 21 17 14 11 9 8 7 5 4 5
0 0 0 0 0 0 0 0 0 0 0 0 0 0 1 4 5 8 16 22 23 27 33 40 46 52 57 61 63 62 57 47 38 33 28 22 18 15 14 15 14 12 9 8
0 0 0 0 0 0 0 0 0 0 0 0 0 0 1 3 4 7 15 21 21 24 31 37 43 51 58 63 66 67 65 57 48 42 35 28 23 20 20 21 22 19 14 11
0 0 0 0 0 0 0 0 0 0 0 0 0 1 2 3 5 9 17 24 25 28 34 39 44 52 62 69 71 71 69 64 58 53 44 35 29 25 23 25 24 21 17 13
0 0 0 0 0 0 0 0 0 0 0 0 0 2 3 5 7 13 21 28 29 32 38 42 46 52 62 73 76 73 69 66 63 59 50 40 33 27 25 25 23 20 17 15
0 0 0 0 0 0 0 0 0 0 0 0 0 1 3 6 10 17 26 32 31 32 37 44 48 52 59 67 74 73 67 64 62 57 49 40 34 30 28 27 24 20 18 17
0 0 0 0 0 0 0 0 0 0 0 0 0 1 3 7 12 19 29 34 34 34 36 42 48 52 55 61 66 66 64 62 61 56 48 41 36 32 31 29 27 24 22 21
0 0 0 0 0 0 0 0 0 0 0 0 0 0 4 10 16 23 29 33 36 38 38 40 46 51 54 57 60 60 61 64 63 58 51 45 39 35 31 28 27 25 22 20
0 0 0 0 0 0 0 0 0 0 0 0 0 1 7 16 22 26 29 32 37 42 42 42 45 50 51 52 53 54 56 60 60 57 54 48 43 38 32 28 25 23 19 17
0 0 0 0 0 0 0 0 0 0 0 0 0 2 10 20 25 27 30 34 38 44 45 42 42 45 44 43 44 46 48 51 53 54 54 51 46 40 33 28 25 23 20 18
0 0 0 0 0 0 0 0 0 0 0 1 2 5 11 19 24 28 34 38 41 45 46 42 38 37 37 36 37 39 42 45 50 53 53 51 47 41 33 28 26 26 24 24
0 0 0 0 0 0 0 0 0 1 2 3 6 9 13 18 22 28 36 40 42 45 44 40 35 32 31 31 33 35 36 40 47 51 50 49 46 41 34 29 27 27 26 26
0 0 0 0 0 0 0 0 1 2 4 6 10 13 16 20 23 27 34 38 40 42 41 37 33 30 28 27 29 30 29 32 39 44 45 45 45 42 38 34 30 29 27 27
0 0 0 0 0 0 0 0 1 3 7 11 15 19 23 26 27 28 30 32 36 39 39 36 34 32 29 25 24 25 25 28 33 37 38 39 42 43 40 37 34 32 29 28
0 0 0 0 0 0 0 0 1 5 11 17 21 26 29 32 33 31 29 30 32 34 35 34 34 34 30 26 23 23 24 26 29 30 31 33 36 39 38 37 36 34 31 30
0 0 0 0 0 0 1 2 3 7 14 19 22 25 29 31 32 29 27 27 29 29 28 28 29 30 28 25 23 22 21 21 22 23 24 27 31 33 33 33 33 32 31 32
0 0 0 0 0 0 2 3 4 7 12 16 17 19 23 26 27 25 23 23 24 24 22 21 22 22 21 20 19 17 15 14 14 16 19 23 28 29 27 27 27 27 28 29
0 0 0 0 0 1 2 3 4 6 10 12 11 12 17 21 21 20 18 17 17 17 16 15 14 13 12 12 11 11 10 10 9 10 14 18 22 24 22 20 20 21 22 22
0 0 1 2 2 2 3 4 6 8 11 11 9 9 12 15 16 14 12 12 12 12 11 10 9 7 5 5 5 5 6 7 7 7 9 12 15 17 16 14 13 14 14 14
0 1 2 5 5 4 4 5 8 11 13 12 10 9 11 12 11 9 7 7 7 7 7 6 5 3 1 1 1 1 2 4 4 4 5 8 10 11 11 9 7 7 7 7
0 1 2 5 6 5 5 5 8 12 14 13 11 10 11 11 8 5 4 3 2 2 2 2 2 1 0 0 0 0 0 1 1 1 3 6 7 7 7 6 4 2 2 3
0 0 1 2 4 4 5 5 8 12 13 12 11 10 10 9 6 3 1 0 0 0 0 0 1 0 0 0 0 0 0 0 0 0 2 4 5 5 6 5 3 1 0 1
Wind_Speed
3 2 3 8 8 8 5 4 5 7 5 3 4 6 8 9 9 10 10 10 12 12 10 11 11 12 11 9 9 9 8 7 5 3 3 3 2 2 2 3 4 5 5 5
4 5 10 8 5 4 4 4 4 5 3 4 3 4 6 9 12 12 13 12 12 10 9 10 10 10 11 11 10 10 9 8 7 5 4 3 3 2 3 2 3 5 5 5
7 10 7 6 6 5 5 6 6 5 1 1 3 1 4 6 6 7 11 13 13 15 15 14 13 12 11 11 12 11 10 9 8 6 3 2 2 1 1 2 2 3 5 5
7 8 6 6 7 6 7 8 7 5 4 2 4 3 6 5 5 7 8 10 13 14 13 14 14 14 14 13 11 10 10 9 8 7 6 6 5 4 4 3 3 3 4 4
7 5 5 7 9 5 7 6 4 4 3 1 0 4 6 2 5 8 10 13 13 13 14 15 15 15 14 13 11 10 10 9 8 8 8 6 5 4 3 3 4 4 3 3
8 6 6 7 7 3 2 3 5 6 5 1 5 4 6 6 10 10 10 12 12 12 13 13 12 11 10 11 10 10 10 9 9 8 8 8 7 6 5 4 4 4 3 2
7 8 6 3 4 5 3 6 4 4 4 6 4 2 8 9 10 12 12 12 12 12 12 12 11 12 12 12 11 10 11 9 9 9 8 8 8 7 7 6 5 4 3 3
4 8 6 3 5 6 4 10 9 6 5 5 3 4 8 7 6 6 8 8 8 10 10 11 12 13 13 13 12 11 11 10 10 9 8 7 7 5 5 6 5 5 4 4
6 8 7 5 4 6 4 4 10 9 3 1 5 5 6 3 1 4 5 6 7 8 8 9 11 11 12 12 12 12 11 10 10 9 8 6 6 6 6 5 5 4 4 4
7 5 7 6 3 3 5 6 6 6 5 2 4 3 4 4 3 3 6 7 6 6 7 7 9 10 10 10 10 10 10 11 9 9 8 7 6 6 5 5 5 5 5 4
5 4 6 4 0 3 2 2 4 5 6 7 3 6 6 7 6 6 7 7 6 7 7 7 8 9 8 8 8 8 9 8 8 8 7 6 6 5 5 5 6 5 5 5
2 6 2 6 6 3 4 3 6 4 4 5 5 7 5 4 5 6 7 7 6 7 5 5 6 7 7 7 6 7 7 8 8 8 7 7 6 6 5 5 6 5 5 5
3 6 2 8 9 6 2 1 2 5 4 4 4 5 2 2 3 4 7 7 6 8 7 6 6 6 6 5 5 5 6 6 7 7 7 7 6 6 6 5 5 5 5 4
5 5 6 7 7 4 4 4 1 5 3 3 5 5 3 1 4 4 6 7 7 8 8 7 6 6 6 4 4 4 5 5 5 6 6 6 6 6 6 5 5 5 5 5
5 3 2 4 4 2 2 4 3 1 4 6 5 5 5 4 5 6 7 8 8 8 7 7 6 5 5 3 2 2 3 4 4 5 5 6 6 5 5 5 5 5 5 5
4 2 1 3 3 3 4 5 2 1 1 4 4 1 3 2 4 5 6 9 9 8 7 6 6 5 4 2 1 1 1 3 4 4 5 4 4 4 5 5 5 4 5 4
2 3 3 2 4 3 3 3 0 2 2 4 4 4 3 4 5 6 6 7 8 8 8 7 7 5 4 3 3 1 0 2 3 4 3 3 4 4 5 5 4 4 5 4
4 3 3 1 3 2 6 2 3 6 5 4 3 3 3 4 4 4 5 8 7 7 7 6 6 5 3 3 3 2 1 1 1 2 3 3 4 3 4 5 5 5 4 4
5 6 3 3 1 4 4 3 1 4 3 4 4 5 6 6 8 6 5 4 5 5 5 5 5 5 4 3 3 4 3 2 2 1 2 3 4 4 4 4 4 4 4 4
4 5 5 3 3 3 4 5 1 6 2 4 3 5 6 6 4 1 2 4 5 5 3 3 3 4 4 2 3 4 3 2 1 2 3 2 3 4 5 5 4 3 3 3
4 3 3 3 3 4 5 7 4 3 4 1 3 4 4 3 4 3 2 4 4 4 3 3 3 3 2 2 4 3 2 1 2 2 2 2 2 3 3 3 2 2 2 2
1 1 1 2 2 5 6 4 3 3 2 3 3 3 4 4 5 5 4 3 3 3 4 4 3 2 1 2 3 3 1 1 1 2 2 2 2 1 1 2 2 2 3 3
1 3 3 4 5 4 1 2 1 3 3 2 3 3 5 5 4 3 3 2 2 2 2 2 3 2 1 1 3 2 1 2 3 2 1 1 1 1 2 2 2 1 2 2
4 2 2 2 1 1 3 4 4 4 3 2 3 3 4 4 4 3 2 1 1 1 1 1 2 2 1 1 1 1 1 1 1 1 1 0 1 0 1 1 2 2 2 2
3 2 2 1 1 3 4 4 2 3 3 3 1 1 2 3 2 2 2 2 1 1 1 1 1 2 1 1 0 0 1 0 1 2 2 1 0 1 1 0 1 1 1 2
2 1 2 2 2 2 2 2 2 3 3 2 1 1 1 3 3 2 1 1 1 1 1 1 1 1 1 1 0 1 1 1 1 1 1 1 0 1 1 2 1 3 1 1
Wind_Direction
313 69 241 239 221 212 206 203 236 241 216 165 194 188 197 184 183 186 182 179 180 185 179 170 170 167 164 165 165 167 166 171 161 153 155 157 174 180 178 186 182 180 180 174
351 269 239 233 233 222 212 211 243 269 224 159 175 198 209 192 191 188 182 183 180 177 172 173 173 171 172 174 174 171 173 175 173 172 168 168 167 183 185 186 185 186 183 182
225 244 248 239 241 245 249 205 207 212 243 74 106 354 232 222 202 192 186 183 179 178 179 180 179 181 178 180 180 178 178 177 177 170 154 141 114 101 151 191 199 199 189 191
246 249 260 257 249 221 251 235 204 190 140 225 148 188 256 227 210 196 191 187 187 183 180 182 182 182 185 186 182 176 177 179 179 171 169 167 173 187 202 195 196 200 194 191
257 255 258 257 249 224 234 231 188 175 143 78 43 148 260 214 212 210 196 196 191 188 182 185 187 186 187 184 180 178 175 179 180 179 179 180 186 193 189 182 187 197 200 195
251 256 227 234 256 235 233 52 43 54 64 357 240 167 251 219 208 209 201 195 190 188 186 185 189 183 182 180 177 175 176 183 182 183 184 185 187 185 179 184 189 198 199 202
294 292 281 253 289 322 79 89 42 4 3 257 256 181 240 237 211 195 193 186 184 184 183 180 183 183 180 179 179 177 178 184 185 185 189 192 191 184 186 187 192 194 194 203
236 279 273 255 205 219 205 140 157 185 212 268 307 233 251 250 220 188 180 170 176 181 183 180 182 181 180 179 178 179 183 187 187 188 192 194 188 184 190 192 188 193 197 204
192 250 272 264 241 181 196 187 166 140 161 227 276 274 305 324 153 153 147 142 168 180 180 181 180 180 177 176 177 180 184 187 189 188 187 189 190 189 192 192 190 194 198 202
173 237 280 286 350 337 177 167 103 115 148 224 277 269 241 245 201 153 138 146 173 179 177 179 176 175 175 177 176 179 183 186 185 183 186 193 194 193 191 186 193 196 199 201
151 172 293 343 274 255 355 58 109 127 154 158 211 262 236 199 184 162 156 157 152 157 169 178 178 172 167 165 167 176 183 179 182 185 186 187 189 192 191 195 198 196 196 191
155 132 252 271 268 231 178 176 139 153 220 164 164 255 277 182 164 150 143 142 136 137 145 145 154 150 146 154 162 174 180 183 187 184 183 187 187 187 195 202 202 195 194 195
113 106 53 337 341 356 30 36 114 133 121 142 158 253 300 128 124 135 133 133 128 116 110 110 117 129 134 146 162 174 176 187 187 180 182 185 185 188 197 202 198 192 190 193
106 110 155 196 230 261 303 311 355 107 136 195 198 202 257 159 126 125 119 120 119 117 120 114 110 118 121 133 153 167 177 181 186 182 181 184 190 190 194 191 187 187 191 191
87 125 186 214 236 269 300 304 311 168 190 183 204 182 213 201 158 143 130 122 118 120 121 117 116 113 108 108 123 164 182 174 173 175 183 197 195 186 187 191 191 189 189 192
62 109 57 334 323 342 335 326 324 353 117 145 127 184 230 167 117 116 124 126 126 127 124 125 122 117 113 127 139 170 174 173 156 160 196 201 188 183 189 196 193 189 193 191
49 91 77 287 311 14 321 306 8 52 41 148 172 210 170 118 124 139 129 121 131 135 135 136 138 140 150 165 149 121 243 133 141 159 173 178 184 193 197 193 192 199 202 194
139 112 133 159 40 232 241 280 106 93 52 57 93 111 121 131 119 103 117 126 130 133 138 143 144 145 155 164 138 127 105 106 123 167 184 186 180 180 193 192 195 206 205 203
150 143 125 121 176 268 300 330 334 113 35 17 97 99 91 99 73 45 44 85 111 122 133 143 147 145 150 151 142 132 129 145 158 209 225 209 194 192 193 198 202 207 204 207
58 104 123 131 152 228 265 299 285 100 53 336 95 118 114 95 95 213 54 71 76 75 85 107 121 120 119 116 109 117 126 122 185 220 238 224 205 196 197 201 202 200 198 207
12 34 113 159 195 249 288 315 27 106 218 246 95 104 97 99 160 165 93 75 86 86 76 81 84 93 114 115 104 104 123 176 263 261 249 230 215 209 200 191 189 185 190 187
152 105 160 140 170 254 315 23 89 195 189 120 95 87 91 106 116 114 97 82 77 67 64 79 92 76 75 98 99 88 31 305 315 315 283 250 226 217 179 162 175 178 178 174
88 186 184 177 201 234 352 95 122 137 112 98 91 88 103 104 115 116 117 126 111 92 68 85 113 109 47 81 100 85 346 351 360 347 302 301 302 190 189 167 165 166 168 181
333 19 77 55 357 354 43 60 54 71 87 82 95 107 117 136 138 125 118 98 88 111 132 121 114 114 86 34 80 111 302 339 337 321 313 259 196 275 224 172 161 152 176 191
298 354 43 50 324 9 18 24 34 42 58 75 52 84 121 138 137 140 147 162 176 178 146 122 134 146 167 194 219 277 330 350 331 328 328 303 228 167 134 83 102 156 208 207
274 187 161 219 235 169 258 304 5 43 38 64 86 48 146 156 164 151 158 173 178 184 152 144 166 183 191 186 302 328 333 352 359 328 328 320 242 174 167 154 82 48 54 48